Radiation Dose at Monitoring Post of Fukushima Daini Nuclear Power Station
Date,Time,MP-1(microSv/h),MP-2(microSv/h),MP-3(microSv/h),MP-4(microSv/h),MP-5(microSv/h),MP-6(microSv/h),MP-7(microSv/h),Wind Direction,Wind Velocity(m/s),Rain
2023/10/15,00:00,0.148,0.133,0.214,0.204,0.211,0.120,0.077,south,2.1,No
2023/10/15,00:10,0.148,0.135,0.215,0.205,0.209,0.120,0.077,southwest,2.3,No
2023/10/15,00:20,0.149,0.133,0.216,0.204,0.210,0.121,0.077,south-southwest,2.4,No
2023/10/15,00:30,0.148,0.134,0.216,0.204,0.210,0.120,0.076,southwest,2.2,No
2023/10/15,00:40,0.148,0.134,0.217,0.206,0.210,0.120,0.076,southwest,2.0,No
2023/10/15,00:50,0.147,0.133,0.216,0.203,0.208,0.120,0.077,southwest,2.2,No
2023/10/15,01:00,0.149,0.134,0.216,0.206,0.212,0.122,0.076,southwest,2.2,No
2023/10/15,01:10,0.147,0.134,0.216,0.204,0.209,0.120,0.076,southwest,2.0,No
2023/10/15,01:20,0.148,0.135,0.216,0.205,0.211,0.120,0.076,west-southwest,2.0,No
2023/10/15,01:30,0.147,0.134,0.216,0.204,0.209,0.120,0.077,west-southwest,1.8,No
2023/10/15,01:40,0.148,0.134,0.215,0.204,0.211,0.120,0.077,southwest,1.3,No
2023/10/15,01:50,0.148,0.134,0.215,0.205,0.209,0.120,0.077,southwest,1.6,No
2023/10/15,02:00,0.148,0.133,0.216,0.204,0.211,0.120,0.076,southwest,1.2,No
2023/10/15,02:10,0.148,0.134,0.216,0.205,0.209,0.120,0.076,southwest,0.7,No
2023/10/15,02:20,0.149,0.134,0.217,0.203,0.211,0.120,0.077,west-southwest,0.7,No
2023/10/15,02:30,0.147,0.134,0.215,0.205,0.208,0.120,0.077,-,CALM,No
2023/10/15,02:40,0.148,0.134,0.216,0.204,0.211,0.120,0.077,-,CALM,No
2023/10/15,02:50,0.149,0.134,0.215,0.205,0.210,0.121,0.077,east,0.6,No
2023/10/15,03:00,0.148,0.134,0.216,0.204,0.210,0.120,0.076,east,0.8,No
2023/10/15,03:10,0.148,0.134,0.217,0.205,0.210,0.121,0.078,east-southeast,0.7,No
2023/10/15,03:20,0.149,0.136,0.216,0.204,0.210,0.121,0.077,east-northeast,0.9,No
2023/10/15,03:30,0.149,0.135,0.216,0.205,0.210,0.120,0.077,-,CALM,No
2023/10/15,03:40,0.148,0.134,0.216,0.203,0.210,0.121,0.078,-,CALM,No
2023/10/15,03:50,0.148,0.135,0.217,0.205,0.209,0.121,0.077,-,CALM,Yes
2023/10/15,04:00,0.148,0.135,0.215,0.205,0.209,0.121,0.077,-,CALM,Yes
2023/10/15,04:10,0.149,0.134,0.217,0.204,0.211,0.121,0.078,-,CALM,Yes
2023/10/15,04:20,0.149,0.135,0.216,0.207,0.211,0.122,0.079,west-southwest,0.6,Yes
2023/10/15,04:30,0.151,0.136,0.219,0.206,0.214,0.123,0.079,west-southwest,0.6,Yes
2023/10/15,04:40,0.150,0.137,0.218,0.208,0.213,0.123,0.080,south-southwest,1.0,Yes
2023/10/15,04:50,0.151,0.136,0.219,0.207,0.212,0.124,0.080,south,1.9,Yes
2023/10/15,05:00,0.151,0.137,0.220,0.208,0.214,0.125,0.081,south,2.3,Yes
2023/10/15,05:10,0.152,0.137,0.220,0.208,0.213,0.125,0.081,south-southeast,3.4,Yes
2023/10/15,05:20,0.152,0.138,0.221,0.209,0.214,0.124,0.082,south-southeast,3.6,Yes
2023/10/15,05:30,0.153,0.138,0.221,0.209,0.214,0.126,0.082,south-southeast,4.1,Yes
2023/10/15,05:40,0.151,0.139,0.220,0.209,0.216,0.126,0.082,south-southeast,4.3,Yes
2023/10/15,05:50,0.153,0.140,0.222,0.210,0.213,0.126,0.083,south,4.0,Yes
2023/10/15,06:00,0.153,0.139,0.220,0.208,0.214,0.126,0.082,south,3.9,Yes
2023/10/15,06:10,0.153,0.139,0.222,0.209,0.214,0.126,0.084,south,3.5,Yes
2023/10/15,06:20,0.153,0.139,0.220,0.208,0.215,0.126,0.082,south,3.2,Yes
2023/10/15,06:30,0.152,0.138,0.221,0.209,0.214,0.126,0.083,south,2.9,Yes
2023/10/15,06:40,0.153,0.137,0.221,0.208,0.215,0.127,0.083,northeast,5.5,Yes
2023/10/15,06:50,0.152,0.138,0.219,0.208,0.212,0.126,0.083,northeast,10.3,Yes
2023/10/15,07:00,0.153,0.139,0.220,0.208,0.214,0.125,0.083,-,CALM,Yes
2023/10/15,07:10,0.151,0.138,0.219,0.207,0.212,0.126,0.082,southwest,10.6,Yes
2023/10/15,07:20,0.152,0.138,0.218,0.206,0.213,0.125,0.083,-,CALM,Yes
2023/10/15,07:30,0.151,0.137,0.218,0.205,0.210,0.125,0.082,west-southwest,6.4,Yes
2023/10/15,07:40,0.150,0.137,0.217,0.205,0.212,0.124,0.081,-,CALM,Yes
2023/10/15,07:50,0.150,0.137,0.216,0.204,0.210,0.123,0.081,west-southwest,6.2,Yes
2023/10/15,08:00,0.150,0.136,0.215,0.204,0.211,0.123,0.082,-,CALM,Yes
2023/10/15,08:10,0.150,0.136,0.215,0.203,0.209,0.123,0.080,southwest,10.4,Yes
2023/10/15,08:20,0.151,0.136,0.213,0.204,0.211,0.123,0.081,-,CALM,Yes
2023/10/15,08:30,0.149,0.136,0.215,0.205,0.210,0.124,0.082,west-northwest,1.8,Yes
2023/10/15,08:40,0.149,0.137,0.214,0.203,0.211,0.123,0.081,west-northwest,2.0,Yes
2023/10/15,08:50,0.149,0.135,0.214,0.205,0.211,0.122,0.082,north-northwest,2.4,Yes
2023/10/15,09:00,0.149,0.136,0.215,0.202,0.210,0.122,0.082,northwest,1.7,Yes
2023/10/15,09:10,0.149,0.136,0.213,0.203,0.210,0.123,0.081,north-northeast,4.6,Yes
2023/10/15,09:20,0.148,0.136,0.214,0.202,0.209,0.122,0.081,west-northwest,2.2,Yes
2023/10/15,09:30,0.150,0.135,0.213,0.203,0.209,0.123,0.081,west-northwest,3.1,Yes
2023/10/15,09:40,0.148,0.135,0.213,0.203,0.209,0.122,0.081,northwest,3.0,Yes
2023/10/15,09:50,0.150,0.136,0.212,0.203,0.211,0.122,0.081,north-northwest,3.0,Yes
2023/10/15,10:00,0.149,0.136,0.212,0.203,0.209,0.121,0.081,northwest,2.7,Yes
2023/10/15,10:10,0.149,0.135,0.213,0.201,0.211,0.122,0.080,northwest,3.0,Yes
2023/10/15,10:20,0.150,0.135,0.212,0.203,0.210,0.121,0.081,west-northwest,2.3,Yes
2023/10/15,10:30,0.150,0.136,0.212,0.202,0.211,0.122,0.080,north-northwest,1.8,Yes
2023/10/15,10:40,0.149,0.136,0.213,0.203,0.209,0.121,0.081,north-northwest,1.6,Yes
2023/10/15,10:50,0.148,0.136,0.211,0.201,0.209,0.121,0.081,northwest,3.1,Yes
2023/10/15,11:00,0.149,0.136,0.212,0.201,0.210,0.122,0.080,northwest,3.1,Yes
2023/10/15,11:10,0.150,0.135,0.212,0.202,0.208,0.121,0.081,north-northwest,6.8,Yes
2023/10/15,11:20,0.149,0.136,0.211,0.201,0.210,0.122,0.081,north-northwest,3.7,Yes
2023/10/15,11:30,0.148,0.135,0.212,0.200,0.208,0.121,0.080,northwest,4.0,Yes
2023/10/15,11:40,0.149,0.135,0.211,0.200,0.211,0.122,0.081,north-northwest,3.9,Yes
2023/10/15,11:50,0.149,0.135,0.212,0.203,0.209,0.121,0.081,north-northwest,4.1,Yes
2023/10/15,12:00,0.149,0.135,0.212,0.201,0.211,0.122,0.082,-,CALM,Yes
2023/10/15,12:10,0.149,0.137,0.213,0.202,0.210,0.122,0.082,north-northwest,5.7,Yes
2023/10/15,12:20,0.149,0.138,0.212,0.202,0.211,0.124,0.083,northwest,6.1,Yes
2023/10/15,12:30,0.152,0.137,0.212,0.202,0.211,0.123,0.084,northwest,6.1,Yes
2023/10/15,12:40,0.151,0.139,0.215,0.204,0.212,0.124,0.084,northwest,5.9,Yes
2023/10/15,12:50,0.151,0.139,0.212,0.204,0.213,0.124,0.084,northwest,6.3,Yes
2023/10/15,13:00,0.151,0.139,0.214,0.204,0.212,0.125,0.085,northwest,6.9,Yes
2023/10/15,13:10,0.151,0.139,0.215,0.204,0.214,0.124,0.085,northwest,7.8,Yes
2023/10/15,13:20,0.151,0.138,0.214,0.203,0.212,0.125,0.086,northwest,7.9,Yes
2023/10/15,13:30,0.151,0.140,0.214,0.204,0.213,0.126,0.086,northwest,8.1,Yes
2023/10/15,13:40,0.151,0.139,0.214,0.204,0.213,0.125,0.085,northwest,7.8,Yes
2023/10/15,13:50,0.151,0.139,0.215,0.206,0.213,0.126,0.086,northwest,8.2,Yes
2023/10/15,14:00,0.150,0.138,0.215,0.203,0.215,0.125,0.086,northwest,7.8,Yes
2023/10/15,14:10,0.150,0.139,0.213,0.205,0.214,0.124,0.086,north-northwest,9.0,Yes
2023/10/15,14:20,0.150,0.138,0.215,0.203,0.213,0.123,0.085,northwest,9.3,Yes
2023/10/15,14:30,0.150,0.137,0.214,0.202,0.212,0.124,0.084,northwest,9.5,Yes
2023/10/15,14:40,0.148,0.138,0.214,0.204,0.214,0.123,0.084,northwest,10.3,Yes
2023/10/15,14:50,0.150,0.138,0.213,0.203,0.212,0.122,0.084,northwest,9.5,Yes
2023/10/15,15:00,0.147,0.138,0.212,0.203,0.212,0.123,0.085,northwest,10.3,Yes
2023/10/15,15:10,0.148,0.137,0.213,0.201,0.210,0.123,0.084,northwest,9.6,Yes
2023/10/15,15:20,0.148,0.138,0.211,0.201,0.211,0.123,0.084,north-northwest,8.6,Yes
2023/10/15,15:30,0.147,0.137,0.211,0.200,0.212,0.122,0.085,north-northwest,8.3,Yes
2023/10/15,15:40,0.147,0.136,0.211,0.200,0.210,0.123,0.085,north-northwest,9.0,Yes
2023/10/15,15:50,0.147,0.136,0.210,0.201,0.211,0.121,0.084,northwest,9.5,Yes
2023/10/15,16:00,0.146,0.136,0.211,0.201,0.210,0.122,0.084,northwest,9.5,Yes
2023/10/15,16:10,0.145,0.135,0.211,0.201,0.210,0.122,0.083,northwest,9.3,Yes
2023/10/15,16:20,0.146,0.136,0.210,0.200,0.209,0.121,0.083,northwest,9.0,Yes
2023/10/15,16:30,0.146,0.136,0.211,0.201,0.211,0.120,0.083,northwest,9.2,Yes
2023/10/15,16:40,0.146,0.135,0.210,0.201,0.210,0.120,0.082,northwest,9.2,Yes
2023/10/15,16:50,0.144,0.134,0.211,0.199,0.209,0.119,0.082,northwest,7.9,No
2023/10/15,17:00,0.144,0.133,0.208,0.200,0.209,0.118,0.079,north-northwest,8.6,No
2023/10/15,17:10,0.144,0.133,0.209,0.198,0.207,0.118,0.079,north-northwest,8.4,No
2023/10/15,17:20,0.143,0.130,0.206,0.198,0.206,0.116,0.077,northwest,8.1,No
2023/10/15,17:30,0.144,0.132,0.206,0.197,0.206,0.116,0.077,north-northwest,9.2,No
2023/10/15,17:40,0.142,0.129,0.207,0.197,0.205,0.116,0.076,northwest,8.2,Yes
2023/10/15,17:50,0.143,0.130,0.206,0.196,0.205,0.115,0.076,north-northwest,9.0,Yes
2023/10/15,18:00,0.141,0.128,0.206,0.197,0.205,0.116,0.076,northwest,8.8,Yes
2023/10/15,18:10,0.143,0.129,0.206,0.197,0.206,0.115,0.076,north-northwest,7.4,Yes
2023/10/15,18:20,0.141,0.130,0.208,0.196,0.207,0.116,0.077,north-northwest,6.1,Yes
2023/10/15,18:30,0.142,0.130,0.206,0.196,0.205,0.117,0.075,northwest,5.7,Yes
2023/10/15,18:40,0.142,0.129,0.207,0.196,0.207,0.115,0.076,west-northwest,6.2,No
2023/10/15,18:50,0.142,0.129,0.206,0.198,0.205,0.115,0.076,west-northwest,5.9,No
2023/10/15,19:00,0.142,0.129,0.205,0.196,0.206,0.115,0.075,west-northwest,6.8,No
2023/10/15,19:10,0.142,0.128,0.205,0.196,0.204,0.114,0.074,northwest,7.5,No
2023/10/15,19:20,0.142,0.129,0.206,0.195,0.206,0.114,0.075,northwest,4.2,No
2023/10/15,19:30,0.141,0.128,0.206,0.196,0.204,0.114,0.074,northwest,4.9,No
2023/10/15,19:40,0.141,0.128,0.206,0.195,0.205,0.114,0.074,north-northwest,3.0,No
2023/10/15,19:50,0.141,0.128,0.205,0.195,0.203,0.113,0.075,north-northwest,3.6,No
2023/10/15,20:00,0.142,0.127,0.206,0.196,0.205,0.113,0.075,north-northwest,4.5,No
2023/10/15,20:10,0.140,0.129,0.206,0.195,0.204,0.114,0.074,northwest,5.4,No
2023/10/15,20:20,0.141,0.128,0.207,0.196,0.204,0.114,0.075,northwest,5.2,No
2023/10/15,20:30,0.141,0.130,0.206,0.195,0.205,0.113,0.074,northwest,4.8,No
2023/10/15,20:40,0.141,0.128,0.206,0.196,0.204,0.114,0.074,west-northwest,4.6,No
2023/10/15,20:50,0.142,0.129,0.207,0.196,0.205,0.114,0.074,northwest,3.3,No
2023/10/15,21:00,0.140,0.129,0.205,0.196,0.204,0.114,0.074,northwest,1.6,No
2023/10/15,21:10,0.142,0.128,0.206,0.195,0.205,0.114,0.074,north-northwest,1.2,No
2023/10/15,21:20,0.141,0.128,0.206,0.196,0.204,0.114,0.074,north,1.5,No
2023/10/15,21:30,0.142,0.128,0.207,0.196,0.205,0.113,0.074,west-northwest,1.1,No
2023/10/15,21:40,0.142,0.128,0.206,0.196,0.206,0.114,0.074,-,CALM,No
2023/10/15,21:50,0.142,0.129,0.206,0.194,0.204,0.114,0.074,northwest,0.7,No
2023/10/15,22:00,0.143,0.128,0.206,0.197,0.206,0.114,0.074,north,1.4,No
2023/10/15,22:10,0.140,0.128,0.205,0.195,0.203,0.114,0.074,east-northeast,1.2,No
2023/10/15,22:20,0.142,0.128,0.206,0.195,0.204,0.113,0.074,east,1.2,No
2023/10/15,22:30,0.141,0.127,0.205,0.197,0.205,0.115,0.074,east-southeast,1.5,No
2023/10/15,22:40,0.142,0.128,0.206,0.195,0.204,0.114,0.074,northeast,1.1,No
2023/10/15,22:50,0.142,0.129,0.207,0.196,0.205,0.115,0.074,south-southeast,1.4,No
2023/10/15,23:00,0.141,0.129,0.205,0.195,0.203,0.114,0.074,south-southeast,2.1,No
2023/10/15,23:10,0.142,0.128,0.205,0.196,0.205,0.114,0.074,south-southeast,1.3,No
2023/10/15,23:20,0.141,0.127,0.205,0.197,0.203,0.114,0.074,west,4.0,No
2023/10/15,23:30,0.141,0.128,0.205,0.195,0.204,0.114,0.074,northwest,2.0,No
2023/10/15,23:40,0.142,0.128,0.206,0.194,0.206,0.114,0.073,west-northwest,2.7,No
2023/10/15,23:50,0.140,0.128,0.206,0.196,0.204,0.114,0.073,west-northwest,3.2,No
